Total_Precipitation_Accumulation
0.97 1.26 1.68 1.95 2.36 2.80 2.93 2.94 2.87 3.02 3.29 3.21 2.99 2.74 2.45 2.25 2.03 1.89 1.74 1.60 1.49 1.40 1.32 1.22 1.25 1.25 1.18 1.11 1.03 0.98 0.91 0.83 0.79 0.78 0.68 0.56 0.50 0.46 0.39 0.37 0.35 0.32 0.30
0.84 1.12 1.44 1.76 2.00 2.58 2.88 2.88 2.95 3.08 3.26 3.18 3.07 2.99 2.84 2.62 2.39 2.21 1.92 1.72 1.58 1.48 1.44 1.33 1.22 1.26 1.28 1.20 1.15 1.13 1.12 1.07 1.05 1.05 1.01 0.84 0.67 0.50 0.41 0.40 0.40 0.40 0.40
0.76 0.95 1.19 1.49 1.65 2.04 2.47 2.64 2.68 2.88 3.04 3.24 3.53 3.53 3.35 2.95 2.48 2.19 2.03 1.87 1.81 1.70 1.57 1.55 1.46 1.33 1.34 1.28 1.17 1.07 1.06 1.08 1.10 1.11 1.19 1.09 0.84 0.64 0.50 0.42 0.38 0.39 0.42
0.72 0.89 1.06 1.20 1.40 1.63 2.01 2.36 2.55 2.67 2.73 2.85 3.17 3.32 3.19 2.80 2.41 2.16 2.12 2.14 2.05 1.99 1.90 1.78 1.71 1.58 1.47 1.41 1.36 1.28 1.16 1.13 1.11 1.09 1.04 1.01 0.90 0.85 0.70 0.51 0.43 0.41 0.42
0.79 0.88 0.96 0.99 1.12 1.36 1.73 2.06 2.29 2.51 2.54 2.50 2.65 2.92 3.07 2.98 2.79 2.53 2.35 2.26 2.18 2.06 2.00 1.94 1.87 1.75 1.64 1.59 1.58 1.50 1.41 1.34 1.24 1.16 1.08 1.06 0.95 0.88 0.89 0.68 0.49 0.49 0.49
0.84 0.87 0.91 0.92 0.99 1.14 1.39 1.68 1.93 2.25 2.43 2.39 2.47 2.58 2.67 2.82 2.79 2.53 2.45 2.34 2.33 2.22 2.05 1.96 1.92 1.87 1.81 1.74 1.72 1.71 1.62 1.51 1.42 1.34 1.25 1.22 1.17 1.01 1.01 0.94 0.72 0.65 0.59
0.74 0.74 0.75 0.78 0.90 1.02 1.15 1.37 1.50 1.76 2.05 2.19 2.25 2.31 2.40 2.48 2.59 2.54 2.45 2.40 2.27 2.18 2.11 2.00 1.96 1.94 1.84 1.80 1.78 1.74 1.66 1.60 1.53 1.50 1.43 1.33 1.24 1.19 1.22 1.26 1.09 0.94 0.78
0.74 0.73 0.71 0.77 0.90 0.96 1.03 1.17 1.29 1.42 1.67 1.89 1.94 1.99 2.13 2.21 2.21 2.29 2.26 2.23 2.17 2.10 2.11 2.09 1.97 1.94 1.89 1.79 1.75 1.70 1.60 1.56 1.52 1.48 1.48 1.43 1.33 1.32 1.36 1.42 1.47 1.36 1.09
0.67 0.71 0.74 0.79 0.85 0.90 0.95 1.04 1.14 1.18 1.32 1.56 1.69 1.77 1.82 1.84 1.79 1.80 1.82 1.86 1.91 1.93 1.94 1.96 1.86 1.79 1.76 1.73 1.69 1.63 1.55 1.49 1.43 1.38 1.38 1.36 1.30 1.30 1.33 1.40 1.56 1.73 1.57
0.67 0.71 0.74 0.72 0.74 0.79 0.85 0.94 0.97 0.97 1.04 1.19 1.32 1.48 1.57 1.55 1.58 1.57 1.52 1.51 1.51 1.57 1.64 1.68 1.68 1.61 1.58 1.57 1.55 1.50 1.46 1.45 1.36 1.29 1.28 1.24 1.19 1.23 1.28 1.36 1.44 1.60 1.72
0.69 0.75 0.78 0.74 0.71 0.76 0.81 0.85 0.83 0.85 0.88 0.97 1.04 1.13 1.26 1.33 1.36 1.36 1.26 1.27 1.24 1.22 1.28 1.29 1.32 1.35 1.36 1.37 1.36 1.34 1.34 1.34 1.30 1.27 1.26 1.24 1.19 1.20 1.21 1.24 1.28 1.36 1.48
0.62 0.69 0.74 0.72 0.71 0.75 0.79 0.84 0.78 0.78 0.80 0.86 0.88 0.92 1.01 1.14 1.18 1.21 1.15 1.08 1.09 1.04 1.05 1.06 1.05 1.05 1.07 1.11 1.13 1.11 1.13 1.17 1.16 1.16 1.17 1.17 1.18 1.21 1.19 1.19 1.18 1.15 1.16
0.54 0.57 0.60 0.63 0.67 0.70 0.74 0.81 0.79 0.72 0.71 0.72 0.73 0.79 0.87 0.96 1.00 1.01 1.03 0.98 1.00 0.94 0.90 0.90 0.90 0.89 0.89 0.91 0.96 1.02 1.03 1.05 1.06 1.05 1.07 1.06 1.09 1.11 1.07 1.05 1.04 1.02 1.04
0.41 0.44 0.48 0.52 0.56 0.61 0.66 0.70 0.73 0.73 0.73 0.70 0.66 0.69 0.75 0.86 0.90 0.86 0.89 0.89 0.94 0.95 0.86 0.81 0.79 0.80 0.83 0.85 0.89 0.97 1.02 1.03 1.03 1.04 1.05 1.00 0.97 0.93 0.91 0.94 0.96 1.03 1.13
0.30 0.34 0.36 0.38 0.43 0.47 0.52 0.57 0.62 0.65 0.70 0.71 0.68 0.67 0.68 0.77 0.82 0.75 0.76 0.79 0.83 0.93 0.92 0.87 0.83 0.81 0.81 0.85 0.91 0.94 0.99 1.00 1.02 1.00 0.97 0.94 0.95 0.91 0.88 0.90 0.93 1.03 1.18
0.22 0.23 0.24 0.25 0.27 0.31 0.37 0.43 0.50 0.55 0.62 0.65 0.67 0.66 0.64 0.69 0.79 0.76 0.73 0.75 0.79 0.88 0.95 0.98 0.96 0.91 0.89 1.02 1.01 0.95 0.95 0.98 0.99 0.96 0.92 0.88 0.92 0.90 0.90 0.91 0.98 1.12 1.28
0.15 0.16 0.15 0.16 0.18 0.21 0.26 0.31 0.37 0.42 0.50 0.57 0.61 0.64 0.68 0.71 0.78 0.80 0.79 0.83 0.90 0.96 0.98 1.03 1.06 1.04 1.07 1.11 0.98 0.97 0.90 0.90 0.91 0.90 0.87 0.83 0.80 0.86 0.79 0.86 0.98 1.06 1.17
0.15 0.16 0.16 0.16 0.17 0.18 0.19 0.22 0.28 0.35 0.40 0.45 0.52 0.56 0.62 0.66 0.69 0.77 0.83 0.88 0.92 0.98 1.02 1.05 1.04 1.01 1.02 1.02 0.92 0.89 0.83 0.83 0.84 0.83 0.81 0.83 0.83 0.82 0.88 0.93 1.00 0.90 0.84
0.14 0.15 0.15 0.15 0.16 0.16 0.17 0.19 0.25 0.33 0.38 0.44 0.50 0.54 0.63 0.67 0.71 0.78 0.81 0.85 0.92 0.95 0.92 0.93 0.94 0.93 0.94 0.91 0.83 0.81 0.76 0.78 0.75 0.73 0.73 0.75 0.76 0.90 1.07 1.12 1.12 0.94 0.76
0.13 0.15 0.15 0.16 0.18 0.20 0.22 0.24 0.29 0.34 0.39 0.45 0.52 0.54 0.62 0.72 0.77 0.79 0.79 0.77 0.82 0.89 0.84 0.80 0.78 0.77 0.78 0.82 0.77 0.75 0.72 0.75 0.72 0.69 0.68 0.75 0.77 0.90 1.06 1.03 1.08 1.03 0.86
0.14 0.14 0.16 0.18 0.23 0.28 0.31 0.32 0.36 0.41 0.42 0.44 0.50 0.49 0.54 0.60 0.64 0.67 0.68 0.69 0.70 0.71 0.68 0.65 0.65 0.62 0.63 0.68 0.66 0.64 0.63 0.69 0.70 0.66 0.61 0.62 0.81 0.91 0.98 0.95 0.87 0.97 1.05
0.17 0.17 0.19 0.21 0.22 0.29 0.36 0.37 0.37 0.39 0.39 0.40 0.45 0.46 0.48 0.52 0.54 0.56 0.60 0.62 0.60 0.60 0.57 0.54 0.54 0.52 0.53 0.56 0.58 0.60 0.63 0.71 0.67 0.61 0.56 0.61 0.78 0.80 0.81 0.79 0.84 1.01 1.02
0.19 0.17 0.18 0.19 0.20 0.24 0.30 0.38 0.38 0.37 0.37 0.40 0.44 0.45 0.43 0.44 0.49 0.50 0.52 0.52 0.50 0.49 0.48 0.47 0.46 0.46 0.47 0.52 0.60 0.61 0.67 0.72 0.67 0.60 0.66 0.70 0.73 0.69 0.68 0.78 0.90 0.89 0.81
0.15 0.16 0.15 0.17 0.20 0.21 0.23 0.28 0.31 0.32 0.34 0.35 0.36 0.39 0.41 0.39 0.39 0.41 0.44 0.47 0.48 0.48 0.46 0.46 0.44 0.42 0.43 0.46 0.50 0.57 0.61 0.63 0.66 0.67 0.67 0.65 0.63 0.63 0.65 0.71 0.74 0.74 0.84
0.15 0.16 0.16 0.17 0.18 0.18 0.20 0.20 0.21 0.24 0.28 0.31 0.32 0.32 0.34 0.35 0.35 0.34 0.37 0.42 0.44 0.50 0.55 0.54 0.53 0.52 0.49 0.48 0.59 0.64 0.63 0.64 0.66 0.67 0.60 0.56 0.56 0.57 0.58 0.61 0.64 0.70 0.85
0.15 0.16 0.16 0.16 0.17 0.18 0.19 0.20 0.20 0.22 0.24 0.27 0.28 0.29 0.30 0.31 0.32 0.33 0.32 0.36 0.39 0.45 0.51 0.56 0.58 0.56 0.56 0.59 0.61 0.62 0.66 0.69 0.71 0.69 0.61 0.57 0.57 0.59 0.62 0.64 0.68 0.72 0.85